User: anonymous   Login
Location: Ostrava
(49.8330°N, 18.2830°E)
Time: 12:37:28
(UTC+01:00)
Language:

Lacrosse 5 - Orbit

View from above orbital plane
View from above orbital plane
View from above satellite
View from above satellite

Ground track
Ground track

The orbit data is extracted from the following two-line orbital elements,

1 28646U 05016A   15054.77846880 0.00000000  00000-0  00000-0 0    04
2 28646  57.0110  37.5572 0006000 121.3374 238.6626 14.52022641    08
Epoch (UTC): 23 February 2015 18:40:59
Eccentricity: 0.0006000
inclination: 57.0110°
perigee height: 715 km
apogee height: 723 km
right ascension of ascending node: 37.5572°
argument of perigee: 121.3374°
revolutions per day: 14.52022641
mean anomaly at epoch: 238.6626°
orbit number at epoch: 0

The dashed part of the orbit path shows where the satellite is in the earth's shadow,  

DLR